Time,TemperatureF,DewpointF,PressureIn,WindDirection,WindDirectionDegrees,WindSpeedMPH,WindSpeedGustMPH,Humidity,HourlyPrecipIn,Conditions,Clouds,dailyrainin,SoftwareType,DateUTC
2013-03-30 00:02:00,41.0,34.0,30.03,WNW,296,1.0,4.0,75,0.00,,,0.00,,2013-03-30 04:02:00,
2013-03-30 00:13:00,41.0,34.0,30.03,WNW,296,1.0,4.0,75,0.00,,,0.00,,2013-03-30 04:13:00,
2013-03-30 00:23:00,41.0,34.0,30.03,WNW,282,1.0,4.0,75,0.00,,,0.00,,2013-03-30 04:23:00,
2013-03-30 00:33:00,41.0,34.0,30.03,WNW,282,1.0,4.0,75,0.00,,,0.00,,2013-03-30 04:33:00,
2013-03-30 00:43:00,41.0,34.0,30.03,WNW,282,1.0,4.0,75,0.00,,,0.00,,2013-03-30 04:43:00,
2013-03-30 00:53:00,40.0,34.0,30.03,WSW,246,0.0,1.0,80,0.00,,,0.00,,2013-03-30 04:53:00,
2013-03-30 01:02:00,40.0,35.0,30.03,North,0,0.0,0.0,81,0.00,,,0.00,,2013-03-30 05:02:00,
2013-03-30 01:12:00,40.0,35.0,30.03,North,0,0.0,0.0,81,0.00,,,0.00,,2013-03-30 05:12:00,
2013-03-30 01:22:00,39.0,34.0,30.03,North,0,0.0,0.0,83,0.00,,,0.00,,2013-03-30 05:22:00,
2013-03-30 01:32:00,38.0,34.0,30.04,North,0,0.0,0.0,84,0.00,,,0.00,,2013-03-30 05:32:00,
2013-03-30 01:42:00,38.0,34.0,30.04,North,0,0.0,0.0,84,0.00,,,0.00,,2013-03-30 05:42:00,
2013-03-30 01:52:00,38.0,34.0,30.04,North,0,0.0,0.0,84,0.00,,,0.00,,2013-03-30 05:52:00,
2013-03-30 02:02:00,38.0,34.0,30.04,North,0,0.0,0.0,86,0.00,,,0.00,,2013-03-30 06:02:00,
2013-03-30 02:12:00,38.0,34.0,30.04,North,0,0.0,0.0,86,0.00,,,0.00,,2013-03-30 06:12:00,
2013-03-30 02:23:00,38.0,34.0,30.04,WSW,246,0.0,1.0,86,0.00,,,0.00,,2013-03-30 06:23:00,
2013-03-30 02:32:00,37.0,33.0,30.03,WSW,246,0.0,2.0,86,0.00,,,0.00,,2013-03-30 06:32:00,
2013-03-30 02:42:00,37.0,33.0,30.03,WSW,246,0.0,2.0,86,0.00,,,0.00,,2013-03-30 06:42:00,
2013-03-30 02:52:00,36.0,32.0,30.03,WSW,246,0.0,1.0,86,0.00,,,0.00,,2013-03-30 06:52:00,
2013-03-30 03:02:00,35.0,32.0,30.03,WSW,246,0.0,2.0,87,0.00,,,0.00,,2013-03-30 07:02:00,
2013-03-30 03:12:00,35.0,32.0,30.03,WSW,246,0.0,2.0,87,0.00,,,0.00,,2013-03-30 07:12:00,
2013-03-30 03:22:00,35.0,32.0,30.03,WSW,246,0.0,2.0,88,0.00,,,0.00,,2013-03-30 07:22:00,
2013-03-30 03:32:00,34.0,31.0,30.03,North,0,0.0,0.0,88,0.00,,,0.00,,2013-03-30 07:32:00,
2013-03-30 03:42:00,34.0,31.0,30.03,North,0,0.0,0.0,88,0.00,,,0.00,,2013-03-30 07:42:00,
2013-03-30 03:52:00,34.0,31.0,30.03,North,0,0.0,0.0,89,0.00,,,0.00,,2013-03-30 07:52:00,
2013-03-30 04:02:00,33.0,30.0,30.03,North,0,0.0,0.0,89,0.00,,,0.00,,2013-03-30 08:02:00,
2013-03-30 04:12:00,33.0,30.0,30.03,North,0,0.0,0.0,89,0.00,,,0.00,,2013-03-30 08:12:00,
2013-03-30 04:22:00,33.0,30.0,30.03,North,0,0.0,0.0,89,0.00,,,0.00,,2013-03-30 08:22:00,
2013-03-30 04:32:00,33.0,30.0,30.03,WSW,246,0.0,2.0,89,0.00,,,0.00,,2013-03-30 08:32:00,
2013-03-30 04:42:00,33.0,30.0,30.03,WSW,246,0.0,2.0,89,0.00,,,0.00,,2013-03-30 08:42:00,
2013-03-30 04:52:00,32.0,29.0,30.03,North,0,0.0,0.0,90,0.00,,,0.00,,2013-03-30 08:52:00,
2013-03-30 05:02:00,32.0,29.0,30.03,North,0,0.0,0.0,90,0.00,,,0.00,,2013-03-30 09:02:00,
2013-03-30 05:12:00,32.0,29.0,30.03,North,0,0.0,0.0,90,0.00,,,0.00,,2013-03-30 09:12:00,
2013-03-30 05:22:00,32.0,29.0,30.03,North,0,0.0,0.0,90,0.00,,,0.00,,2013-03-30 09:22:00,
2013-03-30 05:43:00,32.0,29.0,30.03,North,0,0.0,0.0,90,0.00,,,0.00,,2013-03-30 09:43:00,
2013-03-30 05:54:00,32.0,29.0,30.03,North,0,0.0,0.0,90,0.00,,,0.00,,2013-03-30 09:54:00,
2013-03-30 06:03:00,33.0,30.0,30.03,North,0,0.0,0.0,90,0.00,,,0.00,,2013-03-30 10:03:00,
2013-03-30 06:13:00,33.0,30.0,30.03,North,0,0.0,0.0,90,0.00,,,0.00,,2013-03-30 10:13:00,
2013-03-30 06:23:00,32.0,29.0,30.04,North,0,0.0,0.0,90,0.00,,,0.00,,2013-03-30 10:23:00,
2013-03-30 06:33:00,32.0,29.0,30.04,North,0,0.0,0.0,90,0.00,,,0.00,,2013-03-30 10:33:00,
2013-03-30 06:42:00,32.0,29.0,30.04,North,0,0.0,0.0,90,0.00,,,0.00,,2013-03-30 10:42:00,
2013-03-30 06:52:00,32.0,29.0,30.04,North,0,0.0,0.0,90,0.00,,,0.00,,2013-03-30 10:52:00,
2013-03-30 07:03:00,31.0,28.0,30.05,North,0,0.0,0.0,90,0.00,,,0.00,,2013-03-30 11:03:00,
2013-03-30 07:12:00,31.0,28.0,30.05,North,0,0.0,0.0,90,0.00,,,0.00,,2013-03-30 11:12:00,
2013-03-30 07:23:00,31.0,28.0,30.05,North,0,0.0,0.0,90,0.00,,,0.00,,2013-03-30 11:23:00,
2013-03-30 07:33:00,31.0,29.0,30.06,North,0,0.0,0.0,91,0.00,,,0.00,,2013-03-30 11:33:00,
2013-03-30 07:42:00,31.0,29.0,30.06,North,0,0.0,0.0,91,0.00,,,0.00,,2013-03-30 11:42:00,
2013-03-30 07:52:00,31.0,29.0,30.06,North,0,0.0,0.0,91,0.00,,,0.00,,2013-03-30 11:52:00,
2013-03-30 08:02:00,32.0,30.0,30.06,WSW,246,0.0,1.0,91,0.00,,,0.00,,2013-03-30 12:02:00,
2013-03-30 08:13:00,32.0,30.0,30.06,WSW,246,0.0,1.0,91,0.00,,,0.00,,2013-03-30 12:13:00,
2013-03-30 08:22:00,32.0,30.0,30.06,WSW,246,0.0,1.0,91,0.00,,,0.00,,2013-03-30 12:22:00,
2013-03-30 08:32:00,37.0,33.0,30.06,West,260,0.0,2.0,85,0.00,,,0.00,,2013-03-30 12:32:00,
2013-03-30 08:42:00,37.0,33.0,30.06,West,260,0.0,2.0,85,0.00,,,0.00,,2013-03-30 12:42:00,
2013-03-30 08:52:00,40.0,32.0,30.06,WNW,295,4.0,9.0,73,0.00,,,0.00,,2013-03-30 12:52:00,
2013-03-30 09:02:00,44.0,33.0,30.06,WNW,301,2.0,8.0,64,0.00,,,0.00,,2013-03-30 13:02:00,
2013-03-30 09:12:00,44.0,33.0,30.06,WNW,301,2.0,8.0,64,0.00,,,0.00,,2013-03-30 13:12:00,
2013-03-30 09:22:00,45.0,31.0,30.06,WNW,293,4.0,9.0,58,0.00,,,0.00,,2013-03-30 13:22:00,
2013-03-30 09:32:00,46.0,31.0,30.06,WNW,285,5.0,12.0,55,0.00,,,0.00,,2013-03-30 13:32:00,
2013-03-30 09:43:00,46.0,31.0,30.06,WNW,285,5.0,12.0,55,0.00,,,0.00,,2013-03-30 13:43:00,
2013-03-30 09:52:00,47.0,30.0,30.06,WNW,289,3.0,9.0,51,0.00,,,0.00,,2013-03-30 13:52:00,
2013-03-30 10:03:00,50.0,29.0,30.06,NW,304,2.0,9.0,45,0.00,,,0.00,,2013-03-30 14:03:00,
2013-03-30 10:12:00,50.0,29.0,30.06,NW,304,2.0,9.0,45,0.00,,,0.00,,2013-03-30 14:12:00,
2013-03-30 10:23:00,50.0,29.0,30.06,NW,304,2.0,9.0,45,0.00,,,0.00,,2013-03-30 14:23:00,
2013-03-30 10:32:00,51.0,30.0,30.06,NW,309,4.0,9.0,45,0.00,,,0.00,,2013-03-30 14:32:00,
2013-03-30 10:42:00,51.0,30.0,30.06,NW,309,4.0,9.0,45,0.00,,,0.00,,2013-03-30 14:42:00,
2013-03-30 10:52:00,51.0,30.0,30.06,NW,309,4.0,9.0,45,0.00,,,0.00,,2013-03-30 14:52:00,
2013-03-30 11:03:00,51.0,30.0,30.06,NW,309,4.0,9.0,45,0.00,,,0.00,,2013-03-30 15:03:00,
2013-03-30 11:12:00,51.0,30.0,30.06,NW,309,4.0,9.0,45,0.00,,,0.00,,2013-03-30 15:12:00,
2013-03-30 11:22:00,54.0,26.0,30.05,WNW,290,3.0,8.0,33,0.00,,,0.00,,2013-03-30 15:22:00,
2013-03-30 11:34:00,53.0,24.0,30.04,WNW,294,5.0,11.0,32,0.00,,,0.00,,2013-03-30 15:34:00,
2013-03-30 11:43:00,53.0,24.0,30.04,WNW,294,5.0,11.0,32,0.00,,,0.00,,2013-03-30 15:43:00,
2013-03-30 11:53:00,54.0,22.0,30.04,WNW,297,4.0,11.0,29,0.00,,,0.00,,2013-03-30 15:53:00,
2013-03-30 12:03:00,55.0,23.0,30.03,NW,322,2.0,11.0,28,0.00,,,0.00,,2013-03-30 16:03:00,
2013-03-30 12:13:00,56.0,23.0,30.03,NNE,29,2.0,8.0,28,0.00,,,0.00,,2013-03-30 16:13:00,
2013-03-30 12:23:00,56.0,23.0,30.03,NNE,29,2.0,8.0,28,0.00,,,0.00,,2013-03-30 16:23:00,
2013-03-30 12:33:00,55.0,17.0,30.03,WNW,285,5.0,10.0,22,0.00,,,0.00,,2013-03-30 16:33:00,
2013-03-30 12:43:00,55.0,17.0,30.03,WNW,285,5.0,10.0,22,0.00,,,0.00,,2013-03-30 16:43:00,
2013-03-30 12:52:00,54.0,16.0,30.03,WNW,284,7.0,16.0,22,0.00,,,0.00,,2013-03-30 16:52:00,
2013-03-30 13:02:00,55.0,16.0,30.03,West,277,6.0,13.0,21,0.00,,,0.00,,2013-03-30 17:02:00,
2013-03-30 13:13:00,55.0,16.0,30.03,West,277,6.0,13.0,21,0.00,,,0.00,,2013-03-30 17:13:00,
2013-03-30 13:23:00,56.0,22.0,30.02,WNW,295,3.0,10.0,26,0.00,,,0.00,,2013-03-30 17:23:00,
2013-03-30 13:32:00,55.0,18.0,30.02,West,280,4.0,13.0,23,0.00,,,0.00,,2013-03-30 17:32:00,
2013-03-30 13:42:00,55.0,18.0,30.02,West,280,4.0,13.0,23,0.00,,,0.00,,2013-03-30 17:42:00,
2013-03-30 13:52:00,55.0,18.0,30.02,West,280,4.0,13.0,23,0.00,,,0.00,,2013-03-30 17:52:00,
2013-03-30 14:03:00,58.0,20.0,30.02,NNW,344,2.0,9.0,23,0.00,,,0.00,,2013-03-30 18:03:00,
2013-03-30 14:13:00,57.0,17.0,30.01,NW,307,3.0,11.0,21,0.00,,,0.00,,2013-03-30 18:13:00,
2013-03-30 14:22:00,57.0,17.0,30.01,NW,307,3.0,11.0,21,0.00,,,0.00,,2013-03-30 18:22:00,
2013-03-30 14:33:00,57.0,17.0,30.01,WNW,290,3.0,14.0,21,0.00,,,0.00,,2013-03-30 18:33:00,
2013-03-30 14:42:00,57.0,17.0,30.01,WNW,290,3.0,14.0,21,0.00,,,0.00,,2013-03-30 18:42:00,
2013-03-30 14:53:00,57.0,17.0,30.01,WNW,290,3.0,14.0,21,0.00,,,0.00,,2013-03-30 18:53:00,
2013-03-30 15:03:00,57.0,20.0,30.00,WNW,292,3.0,11.0,23,0.00,,,0.00,,2013-03-30 19:03:00,
2013-03-30 15:13:00,57.0,20.0,30.00,WNW,292,3.0,11.0,23,0.00,,,0.00,,2013-03-30 19:13:00,
2013-03-30 15:22:00,57.0,20.0,30.00,WNW,294,4.0,12.0,23,0.00,,,0.00,,2013-03-30 19:22:00,
2013-03-30 15:32:00,57.0,21.0,30.00,WNW,287,4.0,12.0,24,0.00,,,0.00,,2013-03-30 19:32:00,
2013-03-30 15:42:00,57.0,21.0,30.00,WNW,287,4.0,12.0,24,0.00,,,0.00,,2013-03-30 19:42:00,
2013-03-30 15:52:00,57.0,21.0,30.00,West,267,4.0,11.0,24,0.00,,,0.00,,2013-03-30 19:52:00,
2013-03-30 16:02:00,57.0,19.0,29.99,WNW,282,5.0,11.0,22,0.00,,,0.00,,2013-03-30 20:02:00,
2013-03-30 16:12:00,57.0,19.0,29.99,WNW,282,5.0,11.0,22,0.00,,,0.00,,2013-03-30 20:12:00,
2013-03-30 16:22:00,56.0,19.0,29.99,WNW,302,4.0,10.0,23,0.00,,,0.00,,2013-03-30 20:22:00,
2013-03-30 16:33:00,57.0,19.0,29.99,WNW,296,3.0,10.0,22,0.00,,,0.00,,2013-03-30 20:33:00,
2013-03-30 16:42:00,57.0,19.0,29.99,WNW,296,3.0,10.0,22,0.00,,,0.00,,2013-03-30 20:42:00,
2013-03-30 16:52:00,56.0,18.0,29.99,NW,306,4.0,10.0,22,0.00,,,0.00,,2013-03-30 20:52:00,
2013-03-30 17:02:00,56.0,19.0,29.98,NW,314,3.0,10.0,23,0.00,,,0.00,,2013-03-30 21:02:00,
2013-03-30 17:12:00,56.0,19.0,29.98,NW,314,3.0,10.0,23,0.00,,,0.00,,2013-03-30 21:12:00,
2013-03-30 17:22:00,56.0,18.0,29.98,WNW,284,6.0,13.0,22,0.00,,,0.00,,2013-03-30 21:22:00,
2013-03-30 17:34:00,56.0,20.0,29.98,WNW,285,5.0,12.0,24,0.00,,,0.00,,2013-03-30 21:34:00,
2013-03-30 17:43:00,56.0,20.0,29.98,WNW,285,5.0,12.0,24,0.00,,,0.00,,2013-03-30 21:43:00,
2013-03-30 17:53:00,56.0,20.0,29.98,WNW,284,4.0,9.0,24,0.00,,,0.00,,2013-03-30 21:53:00,
2013-03-30 18:03:00,55.0,19.0,29.99,WNW,293,4.0,11.0,24,0.00,,,0.00,,2013-03-30 22:03:00,
2013-03-30 18:13:00,55.0,19.0,29.99,WNW,293,4.0,11.0,24,0.00,,,0.00,,2013-03-30 22:13:00,
2013-03-30 18:23:00,56.0,20.0,30.00,NW,305,2.0,8.0,24,0.00,,,0.00,,2013-03-30 22:23:00,
2013-03-30 18:33:00,55.0,19.0,30.00,WNW,285,3.0,8.0,24,0.00,,,0.00,,2013-03-30 22:33:00,
2013-03-30 18:43:00,55.0,19.0,30.00,WNW,285,3.0,8.0,24,0.00,,,0.00,,2013-03-30 22:43:00,
2013-03-30 18:54:00,54.0,17.0,30.01,WNW,294,3.0,8.0,23,0.00,,,0.00,,2013-03-30 22:54:00,
2013-03-30 19:02:00,52.0,16.0,30.01,WNW,296,2.0,7.0,24,0.00,,,0.00,,2013-03-30 23:02:00,
2013-03-30 19:12:00,52.0,16.0,30.01,WNW,296,2.0,7.0,24,0.00,,,0.00,,2013-03-30 23:12:00,
2013-03-30 19:22:00,52.0,16.0,30.01,WNW,296,2.0,7.0,24,0.00,,,0.00,,2013-03-30 23:22:00,
2013-03-30 19:33:00,51.0,19.0,30.02,WNW,288,2.0,7.0,28,0.00,,,0.00,,2013-03-30 23:33:00,
2013-03-30 19:42:00,51.0,19.0,30.02,WNW,288,2.0,7.0,28,0.00,,,0.00,,2013-03-30 23:42:00,
2013-03-30 19:52:00,49.0,31.0,30.02,West,269,0.0,3.0,50,0.00,,,0.00,,2013-03-30 23:52:00,
2013-03-30 20:03:00,46.0,31.0,30.03,North,0,0.0,0.0,56,0.00,,,0.00,,2013-03-31 00:03:00,
2013-03-30 20:12:00,46.0,31.0,30.03,North,0,0.0,0.0,56,0.00,,,0.00,,2013-03-31 00:12:00,
2013-03-30 20:22:00,44.0,32.0,30.03,North,0,0.0,0.0,62,0.00,,,0.00,,2013-03-31 00:22:00,
2013-03-30 20:32:00,43.0,29.0,30.03,North,0,0.0,0.0,58,0.00,,,0.00,,2013-03-31 00:32:00,
2013-03-30 20:42:00,43.0,29.0,30.03,North,0,0.0,0.0,58,0.00,,,0.00,,2013-03-31 00:42:00,
2013-03-30 20:52:00,41.0,29.0,30.04,North,0,0.0,0.0,61,0.00,,,0.00,,2013-03-31 00:52:00,
2013-03-30 21:02:00,40.0,29.0,30.04,North,0,0.0,0.0,64,0.00,,,0.00,,2013-03-31 01:02:00,
2013-03-30 21:12:00,40.0,29.0,30.04,North,0,0.0,0.0,64,0.00,,,0.00,,2013-03-31 01:12:00,
2013-03-30 21:22:00,40.0,29.0,30.04,North,0,0.0,0.0,64,0.00,,,0.00,,2013-03-31 01:22:00,
2013-03-30 21:32:00,37.0,28.0,30.06,North,0,0.0,0.0,70,0.00,,,0.00,,2013-03-31 01:32:00,
2013-03-30 21:42:00,37.0,28.0,30.06,North,0,0.0,0.0,70,0.00,,,0.00,,2013-03-31 01:42:00,
2013-03-30 21:53:00,36.0,27.0,30.06,North,0,0.0,0.0,70,0.00,,,0.00,,2013-03-31 01:53:00,
2013-03-30 22:02:00,36.0,28.0,30.07,North,0,0.0,0.0,71,0.00,,,0.00,,2013-03-31 02:02:00,
2013-03-30 22:13:00,36.0,28.0,30.07,North,0,0.0,0.0,71,0.00,,,0.00,,2013-03-31 02:13:00,
2013-03-30 22:22:00,35.0,27.0,30.07,North,0,0.0,0.0,72,0.00,,,0.00,,2013-03-31 02:22:00,
2013-03-30 22:32:00,34.0,25.0,30.07,North,0,0.0,0.0,69,0.00,,,0.00,,2013-03-31 02:32:00,
2013-03-30 22:43:00,34.0,25.0,30.07,North,0,0.0,0.0,69,0.00,,,0.00,,2013-03-31 02:43:00,
2013-03-30 22:52:00,33.0,25.0,30.07,North,0,0.0,0.0,71,0.00,,,0.00,,2013-03-31 02:52:00,
2013-03-30 23:02:00,33.0,25.0,30.07,North,0,0.0,0.0,71,0.00,,,0.00,,2013-03-31 03:02:00,
2013-03-30 23:13:00,33.0,25.0,30.07,North,0,0.0,0.0,71,0.00,,,0.00,,2013-03-31 03:13:00,
2013-03-30 23:22:00,32.0,25.0,30.07,North,0,0.0,0.0,76,0.00,,,0.00,,2013-03-31 03:22:00,
2013-03-30 23:33:00,32.0,25.0,30.07,North,0,0.0,0.0,75,0.00,,,0.00,,2013-03-31 03:33:00,
2013-03-30 23:44:00,32.0,25.0,30.07,North,0,0.0,0.0,75,0.00,,,0.00,,2013-03-31 03:44:00,
2013-03-30 23:54:00,31.0,24.0,30.08,North,0,0.0,0.0,75,0.00,,,0.00,,2013-03-31 03:54:00,